Time,TemperatureF,DewpointF,PressureIn,WindDirection,WindDirectionDegrees,WindSpeedMPH,WindSpeedGustMPH,Humidity,HourlyPrecipIn,Conditions,Clouds,dailyrainin,SoftwareType,DateUTC
2013-04-02 00:08:00,32.4,18.5,29.78,SW,225,3.2,-999.0,56,-99.99,,,0.00,Acu-Link.com,2013-04-02 04:08:00,
2013-04-02 00:23:00,32.2,17.9,29.79,WNW,292,8.3,-999.0,55,-99.99,,,0.00,Acu-Link.com,2013-04-02 04:23:00,
2013-04-02 00:38:00,32.0,17.3,29.79,NNW,337,3.7,-999.0,54,-99.99,,,0.00,Acu-Link.com,2013-04-02 04:38:00,
2013-04-02 00:53:00,31.8,16.6,29.80,NW,315,2.7,-999.0,53,-99.99,,,0.00,Acu-Link.com,2013-04-02 04:53:00,
2013-04-02 01:08:00,31.3,17.0,29.80,NW,315,2.2,-999.0,55,-99.99,,,0.00,Acu-Link.com,2013-04-02 05:08:00,
2013-04-02 01:23:00,31.3,16.6,29.81,West,270,2.2,-999.0,54,-99.99,,,0.00,Acu-Link.com,2013-04-02 05:23:00,
2013-04-02 01:38:00,31.3,15.7,29.81,West,270,0.0,-999.0,52,-99.99,,,0.00,Acu-Link.com,2013-04-02 05:38:00,
2013-04-02 01:53:00,30.6,16.4,29.81,NNE,22,6.3,-999.0,55,-99.99,,,0.00,Acu-Link.com,2013-04-02 05:53:00,
2013-04-02 02:09:00,30.4,15.8,29.81,East,90,1.7,-999.0,54,-99.99,,,0.00,Acu-Link.com,2013-04-02 06:09:00,
2013-04-02 02:24:00,30.2,15.6,29.81,NE,45,3.2,-999.0,54,-99.99,,,0.00,Acu-Link.com,2013-04-02 06:24:00,
2013-04-02 02:39:00,29.7,15.5,29.81,SW,225,1.7,-999.0,55,-99.99,,,0.00,Acu-Link.com,2013-04-02 06:39:00,
2013-04-02 02:54:00,29.7,15.5,29.81,West,270,2.2,-999.0,55,-99.99,,,0.00,Acu-Link.com,2013-04-02 06:54:00,
2013-04-02 03:09:00,29.5,15.8,29.81,South,180,0.0,-999.0,56,-99.99,,,0.00,Acu-Link.com,2013-04-02 07:09:00,
2013-04-02 03:24:00,29.3,15.6,29.81,North,0,5.3,-999.0,56,-99.99,,,0.00,Acu-Link.com,2013-04-02 07:24:00,
2013-04-02 03:39:00,29.5,16.2,29.81,NW,315,2.7,-999.0,57,-99.99,,,0.00,Acu-Link.com,2013-04-02 07:39:00,
2013-04-02 03:54:00,28.9,16.4,29.81,South,180,1.7,-999.0,59,-99.99,,,0.00,Acu-Link.com,2013-04-02 07:54:00,
2013-04-02 04:10:00,28.6,16.5,29.82,SE,135,2.2,-999.0,60,-99.99,,,0.00,Acu-Link.com,2013-04-02 08:10:00,
2013-04-02 04:25:00,28.2,16.5,29.82,SW,225,0.0,-999.0,61,-99.99,,,0.00,Acu-Link.com,2013-04-02 08:25:00,
2013-04-02 04:40:00,27.7,17.1,29.81,WSW,247,1.7,-999.0,64,-99.99,,,0.00,Acu-Link.com,2013-04-02 08:40:00,
2013-04-02 04:56:00,27.3,17.5,29.82,NNW,337,0.0,-999.0,66,-99.99,,,0.00,Acu-Link.com,2013-04-02 08:56:00,
2013-04-02 05:11:00,26.8,17.7,29.82,SSE,157,0.0,-999.0,68,-99.99,,,0.00,Acu-Link.com,2013-04-02 09:11:00,
2013-04-02 05:41:00,25.3,17.9,29.83,South,180,2.2,-999.0,73,-99.99,,,0.00,Acu-Link.com,2013-04-02 09:41:00,
2013-04-02 06:26:00,25.9,17.5,29.84,SSE,157,2.2,-999.0,70,-99.99,,,0.00,Acu-Link.com,2013-04-02 10:26:00,
2013-04-02 06:57:00,26.1,17.7,29.85,South,180,1.7,-999.0,70,-99.99,,,0.00,Acu-Link.com,2013-04-02 10:57:00,
2013-04-02 07:12:00,27.1,18.3,29.85,West,270,0.0,-999.0,69,-99.99,,,0.00,Acu-Link.com,2013-04-02 11:12:00,
2013-04-02 07:27:00,28.8,19.2,29.85,South,180,2.2,-999.0,67,-99.99,,,0.00,Acu-Link.com,2013-04-02 11:27:00,
2013-04-02 07:42:00,32.0,20.5,29.86,SW,225,0.0,-999.0,62,-99.99,,,0.00,Acu-Link.com,2013-04-02 11:42:00,
2013-04-02 07:57:00,32.7,20.0,29.85,SSW,202,1.1,-999.0,59,-99.99,,,0.00,Acu-Link.com,2013-04-02 11:57:00,
2013-04-02 08:12:00,33.1,20.0,29.86,NNW,337,3.2,-999.0,58,-99.99,,,0.00,Acu-Link.com,2013-04-02 12:12:00,
2013-04-02 08:27:00,34.7,19.3,29.86,NNW,337,2.7,-999.0,53,-99.99,,,0.00,Acu-Link.com,2013-04-02 12:27:00,
2013-04-02 08:42:00,34.0,20.0,29.86,SSW,202,2.2,-999.0,56,-99.99,,,0.00,Acu-Link.com,2013-04-02 12:42:00,
2013-04-02 08:57:00,34.9,19.5,29.87,North,0,9.4,-999.0,53,-99.99,,,0.00,Acu-Link.com,2013-04-02 12:57:00,
2013-04-02 09:13:00,36.1,20.2,29.86,North,0,3.7,-999.0,52,-99.99,,,0.00,Acu-Link.com,2013-04-02 13:13:00,
2013-04-02 09:28:00,36.0,20.5,29.86,North,0,3.2,-999.0,53,-99.99,,,0.00,Acu-Link.com,2013-04-02 13:28:00,
2013-04-02 09:43:00,37.4,21.9,29.86,SSW,202,4.2,-999.0,53,-99.99,,,0.00,Acu-Link.com,2013-04-02 13:43:00,
2013-04-02 09:58:00,34.9,20.4,29.86,South,180,3.7,-999.0,55,-99.99,,,0.00,Acu-Link.com,2013-04-02 13:58:00,
2013-04-02 10:13:00,37.0,21.9,29.86,SW,225,6.3,-999.0,54,-99.99,,,0.00,Acu-Link.com,2013-04-02 14:13:00,
2013-04-02 10:28:00,36.5,20.6,29.86,SSW,202,4.2,-999.0,52,-99.99,,,0.00,Acu-Link.com,2013-04-02 14:28:00,
2013-04-02 10:43:00,38.1,20.2,29.87,SE,135,2.2,-999.0,48,-99.99,,,0.00,Acu-Link.com,2013-04-02 14:43:00,
2013-04-02 10:58:00,40.5,20.3,29.87,SSW,202,2.7,-999.0,44,-99.99,,,0.00,Acu-Link.com,2013-04-02 14:58:00,
2013-04-02 11:13:00,39.0,19.0,29.86,NW,315,4.2,-999.0,44,-99.99,,,0.00,Acu-Link.com,2013-04-02 15:13:00,
2013-04-02 11:29:00,39.0,17.9,29.86,ENE,67,6.8,-999.0,42,-99.99,,,0.00,Acu-Link.com,2013-04-02 15:29:00,
2013-04-02 11:44:00,40.8,17.8,29.85,NNE,22,7.3,-999.0,39,-99.99,,,0.00,Acu-Link.com,2013-04-02 15:44:00,
2013-04-02 11:59:00,43.7,20.4,29.84,South,180,3.7,-999.0,39,-99.99,,,0.00,Acu-Link.com,2013-04-02 15:59:00,
2013-04-02 12:14:00,39.4,15.9,29.84,NW,315,4.7,-999.0,38,-99.99,,,0.00,Acu-Link.com,2013-04-02 16:14:00,
2013-04-02 12:29:00,41.0,16.7,29.84,NW,315,6.3,-999.0,37,-99.99,,,0.00,Acu-Link.com,2013-04-02 16:29:00,
2013-04-02 12:44:00,39.0,13.7,29.84,WNW,292,4.7,-999.0,35,-99.99,,,0.00,Acu-Link.com,2013-04-02 16:44:00,
2013-04-02 13:00:00,42.4,15.4,29.83,North,0,6.8,-999.0,33,-99.99,,,0.00,Acu-Link.com,2013-04-02 17:00:00,
2013-04-02 13:15:00,41.7,16.1,29.83,NW,315,5.8,-999.0,35,-99.99,,,0.00,Acu-Link.com,2013-04-02 17:15:00,
2013-04-02 13:30:00,39.6,14.9,29.83,NNE,22,3.7,-999.0,36,-99.99,,,0.00,Acu-Link.com,2013-04-02 17:30:00,
2013-04-02 13:45:00,40.6,15.1,29.82,ENE,67,3.7,-999.0,35,-99.99,,,0.00,Acu-Link.com,2013-04-02 17:45:00,
2013-04-02 14:00:00,41.9,14.9,29.82,SSW,202,4.7,-999.0,33,-99.99,,,0.00,Acu-Link.com,2013-04-02 18:00:00,
2013-04-02 14:15:00,43.7,15.8,29.82,West,270,3.2,-999.0,32,-99.99,,,0.00,Acu-Link.com,2013-04-02 18:15:00,
2013-04-02 14:30:00,42.8,14.3,29.82,ESE,112,4.7,-999.0,31,-99.99,,,0.00,Acu-Link.com,2013-04-02 18:30:00,
2013-04-02 14:45:00,40.8,13.3,29.83,West,270,2.7,-999.0,32,-99.99,,,0.00,Acu-Link.com,2013-04-02 18:45:00,
2013-04-02 15:00:00,40.6,13.1,29.82,NNE,22,3.2,-999.0,32,-99.99,,,0.00,Acu-Link.com,2013-04-02 19:00:00,
2013-04-02 15:16:00,40.3,13.5,29.82,NNW,337,3.7,-999.0,33,-99.99,,,0.00,Acu-Link.com,2013-04-02 19:16:00,
2013-04-02 15:46:00,42.6,13.4,29.82,WSW,247,3.2,-999.0,30,-99.99,,,0.00,Acu-Link.com,2013-04-02 19:46:00,
2013-04-02 16:16:00,40.3,13.5,29.83,WNW,292,4.2,-999.0,33,-99.99,,,0.00,Acu-Link.com,2013-04-02 20:16:00,
2013-04-02 16:31:00,38.7,12.8,29.83,NNE,22,9.9,-999.0,34,-99.99,,,0.00,Acu-Link.com,2013-04-02 20:31:00,
2013-04-02 16:46:00,38.5,14.5,29.83,West,270,6.8,-999.0,37,-99.99,,,0.00,Acu-Link.com,2013-04-02 20:46:00,
2013-04-02 17:01:00,38.3,13.7,29.83,WNW,292,4.7,-999.0,36,-99.99,,,0.00,Acu-Link.com,2013-04-02 21:01:00,
2013-04-02 17:16:00,37.4,11.6,29.84,SSE,157,6.3,-999.0,34,-99.99,,,0.00,Acu-Link.com,2013-04-02 21:16:00,
2013-04-02 17:32:00,37.2,14.0,29.84,NNW,337,7.8,-999.0,38,-99.99,,,0.00,Acu-Link.com,2013-04-02 21:32:00,
2013-04-02 18:02:00,36.1,15.8,29.85,WNW,292,5.3,-999.0,43,-99.99,,,0.00,Acu-Link.com,2013-04-02 22:02:00,
2013-04-02 18:17:00,36.0,16.7,29.86,SSW,202,0.0,-999.0,45,-99.99,,,0.00,Acu-Link.com,2013-04-02 22:17:00,
2013-04-02 18:32:00,35.4,15.2,29.86,NE,45,2.7,-999.0,43,-99.99,,,0.00,Acu-Link.com,2013-04-02 22:32:00,
2013-04-02 19:02:00,34.3,14.2,29.87,NNW,337,2.2,-999.0,43,-99.99,,,0.00,Acu-Link.com,2013-04-02 23:02:00,
2013-04-02 19:17:00,33.8,14.2,29.87,NW,315,2.7,-999.0,44,-99.99,,,0.00,Acu-Link.com,2013-04-02 23:17:00,
2013-04-02 19:32:00,33.3,14.8,29.89,South,180,5.3,-999.0,46,-99.99,,,0.00,Acu-Link.com,2013-04-02 23:32:00,
2013-04-02 19:48:00,32.9,14.4,29.89,West,270,2.2,-999.0,46,-99.99,,,0.00,Acu-Link.com,2013-04-02 23:48:00,
2013-04-02 20:03:00,32.2,15.2,29.89,North,0,5.3,-999.0,49,-99.99,,,0.00,Acu-Link.com,2013-04-03 00:03:00,
2013-04-02 20:18:00,32.5,15.5,29.89,NNW,337,3.2,-999.0,49,-99.99,,,0.00,Acu-Link.com,2013-04-03 00:18:00,
2013-04-02 20:33:00,32.0,15.5,29.91,NNW,337,2.2,-999.0,50,-99.99,,,0.00,Acu-Link.com,2013-04-03 00:33:00,
2013-04-02 20:48:00,31.6,15.1,29.91,ENE,67,2.2,-999.0,50,-99.99,,,0.00,Acu-Link.com,2013-04-03 00:48:00,
2013-04-02 21:03:00,30.9,15.4,29.92,WSW,247,0.0,-999.0,52,-99.99,,,0.00,Acu-Link.com,2013-04-03 01:03:00,
2013-04-02 21:19:00,30.4,15.8,29.92,SE,135,0.0,-999.0,54,-99.99,,,0.00,Acu-Link.com,2013-04-03 01:19:00,
2013-04-02 21:34:00,29.7,15.9,29.93,West,270,0.0,-999.0,56,-99.99,,,0.00,Acu-Link.com,2013-04-03 01:34:00,
2013-04-02 21:49:00,29.1,15.8,29.93,NE,45,0.0,-999.0,57,-99.99,,,0.00,Acu-Link.com,2013-04-03 01:49:00,
2013-04-02 22:04:00,30.2,17.2,29.92,ENE,67,1.7,-999.0,58,-99.99,,,0.00,Acu-Link.com,2013-04-03 02:04:00,
2013-04-02 22:19:00,30.0,17.0,29.92,SW,225,1.7,-999.0,58,-99.99,,,0.00,Acu-Link.com,2013-04-03 02:19:00,
2013-04-02 22:34:00,29.8,16.4,29.92,SSE,157,2.7,-999.0,57,-99.99,,,0.00,Acu-Link.com,2013-04-03 02:34:00,
2013-04-02 22:49:00,30.0,16.6,29.92,West,270,0.0,-999.0,57,-99.99,,,0.00,Acu-Link.com,2013-04-03 02:49:00,
2013-04-02 23:19:00,30.2,16.8,29.92,South,180,0.0,-999.0,57,-99.99,,,0.00,Acu-Link.com,2013-04-03 03:19:00,
2013-04-02 23:34:00,30.4,17.4,29.92,South,180,2.7,-999.0,58,-99.99,,,0.00,Acu-Link.com,2013-04-03 03:34:00,